Change the Weather History Date:

Monday, May 12, 2014

  Actual Average Record
Temperature  
Mean Temperature 77 °F 72 °F  
Max Temperature 88 °F 83 °F 96 °F (1942)
Min Temperature 66 °F 61 °F 41 °F (1931)
Degree Days  
Heating Degree Days 0 0  
Month to date heating degree days 10 8  
Since 1 July heating degree days 2598 2257  
Cooling Degree Days 12 7  
Month to date cooling degree days 92 74  
Year to date cooling degree days 202 197  
Growing Degree Days 27 (Base 50)    
Moisture  
Dew Point 68 °F    
Average Humidity 74    
Maximum Humidity 93    
Minimum Humidity 55    
Precipitation  
Precipitation 1.05 in 0.14 in 2.26 in (1954)
Month to date precipitation 3.67 1.89  
Year to date precipitation 12.71 16.82  
Snow  
Snow 0.00 in - - ()
Month to date snowfall 0.0  
Since 1 July snowfall 0.3  
Snow Depth 0.00 in    
Sea Level Pressure  
Sea Level Pressure 29.89 in    
Wind  
Wind Speed 11 mph (SSE)    
Max Wind Speed 33 mph    
Max Gust Speed 44 mph    
Visibility 8 miles    
Events Rain , Thunderstorm    
T = Trace of Precipitation, MM = Missing Value Source: NWS Daily Summary

Daily Weather History Graph

Daily Weather History Graph

Search for Another Location

Airport or City:

Trip Planner

Search our weather history database for the weather conditions in past years. The results will help you decide how hot, cold, wet, or windy it might be!

Date:

Astronomy

May. 12, 2014 Rise Set
Actual Time 6:22 AM CDT 8:07 PM CDT
Civil Twilight 5:56 AM CDT 8:34 PM CDT
Nautical Twilight 5:23 AM CDT 9:07 PM CDT
Astronomical Twilight 4:49 AM CDT 9:41 PM CDT
Moon 6:13 PM CDT (5/12) 4:53 AM CDT (5/12)
Length of Visible Light 14h 38m
Length of Day
13h 45m
Waxing Gibbous, 95% of the Moon is Illuminated
May 12
Waxing Gibbous
May 14
Full
May 21
Last Quarter
May 28
New
Jun 5
First Quarter

Hourly Weather History & Observations

Time (CDT) Temp. Heat Index Dew Point Humidity Pressure Visibility Wind Dir Wind Speed Gust Speed Precip Events Conditions
12:53 AM 77.0 °F - 70.0 °F 79% 29.78 in 10.0 mi South 12.7 mph - N/A   Mostly Cloudy
1:53 AM 78.1 °F - 70.0 °F 76% 29.79 in 10.0 mi South 12.7 mph - N/A   Overcast
2:50 AM 78.8 °F - 69.8 °F 74% 29.81 in 10.0 mi South 10.4 mph - N/A   Overcast
2:53 AM 78.1 °F - 70.0 °F 76% 29.79 in 10.0 mi South 15.0 mph - N/A   Overcast
3:21 AM 78.8 °F - 69.8 °F 74% 29.81 in 10.0 mi South 10.4 mph - 0.00 in Rain Light Rain
3:53 AM 77.0 °F - 71.1 °F 82% 29.78 in 10.0 mi SSE 11.5 mph - 0.00 in   Overcast
4:53 AM 77.0 °F - 71.1 °F 82% 29.82 in 10.0 mi SSE 9.2 mph - N/A   Overcast
5:53 AM 77.0 °F - 70.0 °F 79% 29.83 in 10.0 mi SSE 8.1 mph - N/A   Overcast
6:53 AM 77.0 °F - 70.0 °F 79% 29.86 in 10.0 mi SSE 9.2 mph - N/A   Overcast
7:53 AM 77.0 °F - 70.0 °F 79% 29.87 in 10.0 mi SSE 11.5 mph - 0.00 in   Overcast
9:09 AM 78.8 °F - 71.6 °F 78% 29.90 in 10.0 mi SSE 11.5 mph - N/A   Mostly Cloudy
9:37 AM 78.8 °F - 69.8 °F 74% 29.91 in 10.0 mi South 13.8 mph 21.9 mph N/A   Mostly Cloudy
9:53 AM 80.1 °F 83.2 °F 70.0 °F 71% 29.90 in 10.0 mi South 10.4 mph 20.7 mph N/A   Overcast
10:29 AM 78.8 °F - 69.8 °F 74% 29.95 in 10.0 mi South 10.4 mph - N/A   Overcast
10:44 AM 80.6 °F 83.9 °F 69.8 °F 70% 29.95 in 10.0 mi SSE 12.7 mph - N/A   Overcast
10:53 AM 80.1 °F 82.9 °F 69.1 °F 69% 29.94 in 10.0 mi SSE 8.1 mph - 0.00 in Rain Light Rain
11:04 AM 80.6 °F 83.9 °F 69.8 °F 70% 29.96 in 10.0 mi South 5.8 mph - 0.00 in   Overcast
11:11 AM 80.6 °F 83.9 °F 69.8 °F 70% 29.97 in 10.0 mi Calm Calm - 0.00 in   Overcast
11:53 AM 80.1 °F 83.2 °F 70.0 °F 71% 29.95 in 10.0 mi SSE 9.2 mph - 0.00 in   Overcast
12:53 PM 81.0 °F 84.4 °F 70.0 °F 69% 29.93 in 10.0 mi SSE 8.1 mph - N/A   Mostly Cloudy
1:53 PM 84.9 °F 89.4 °F 70.0 °F 61% 29.90 in 10.0 mi South 17.3 mph - N/A   Clear
2:53 PM 87.1 °F 92.0 °F 70.0 °F 57% 29.85 in 10.0 mi South 17.3 mph 25.3 mph N/A   Partly Cloudy
3:53 PM 88.0 °F 92.9 °F 70.0 °F 55% 29.81 in 10.0 mi South 20.7 mph 28.8 mph N/A   Partly Cloudy
4:53 PM 86.0 °F 91.5 °F 71.1 °F 61% 29.81 in 10.0 mi SSE 11.5 mph 19.6 mph N/A   Partly Cloudy
5:53 PM 84.0 °F 88.4 °F 70.0 °F 63% 29.81 in 10.0 mi South 11.5 mph - N/A Thunderstorm Thunderstorm
6:53 PM 77.0 °F - 69.1 °F 76% 29.79 in 5.0 mi SSE 16.1 mph 32.2 mph 0.06 in Rain , Thunderstorm Light Thunderstorms and Rain
7:53 PM 75.9 °F - 70.0 °F 82% 29.81 in 10.0 mi SSE 17.3 mph 25.3 mph 0.08 in Thunderstorm Thunderstorm
8:01 PM 71.6 °F - 66.2 °F 83% 29.85 in 2.0 mi West 26.5 mph 36.8 mph 0.01 in Rain , Thunderstorm Thunderstorms and Rain
8:07 PM 68.0 °F - 64.4 °F 88% 29.89 in 2.0 mi NW 32.2 mph 43.7 mph 0.02 in Rain , Thunderstorm Thunderstorms and Rain
8:10 PM 66.2 °F - 64.4 °F 94% 29.92 in 0.5 mi NW 25.3 mph 43.7 mph 0.03 in Rain , Thunderstorm Thunderstorms and Rain
8:16 PM 66.2 °F - 64.4 °F 94% 29.93 in 0.5 mi NNW 15.0 mph 43.7 mph 0.06 in Rain , Thunderstorm Thunderstorms and Rain
8:27 PM 66.2 °F - 64.4 °F 94% 29.92 in 1.2 mi North 16.1 mph - 0.11 in Rain , Thunderstorm Thunderstorms and Rain
8:38 PM 66.2 °F - 64.4 °F 94% 29.94 in 3.0 mi North 8.1 mph 18.4 mph 0.16 in Rain , Thunderstorm Thunderstorms and Rain
8:51 PM 66.2 °F - 62.6 °F 88% 29.93 in 5.0 mi North 10.4 mph - 0.21 in Rain , Thunderstorm Thunderstorms and Rain
8:53 PM 66.0 °F - 63.0 °F 90% 29.91 in 5.0 mi North 9.2 mph - 0.22 in Rain , Thunderstorm Thunderstorms and Rain
10:01 PM 66.2 °F - 62.6 °F 88% 29.97 in 5.0 mi ENE 6.9 mph - 0.02 in Rain , Thunderstorm Rain
10:09 PM 66.2 °F - 64.4 °F 94% 29.98 in 5.0 mi ENE 5.8 mph - 0.05 in Rain Rain
10:26 PM 66.2 °F - 64.4 °F 94% 29.96 in 5.0 mi NE 8.1 mph - 0.09 in Rain , Thunderstorm Thunderstorms and Rain
10:42 PM 66.2 °F - 64.4 °F 94% 29.98 in 6.0 mi ENE 9.2 mph - 0.14 in Rain Rain
10:53 PM 66.0 °F - 64.0 °F 93% 29.98 in 6.0 mi ENE 4.6 mph - 0.17 in Rain Rain
11:08 PM 66.2 °F - 64.4 °F 94% 30.00 in 5.0 mi Calm Calm - 0.04 in Rain , Thunderstorm Rain
11:21 PM 66.2 °F - 64.4 °F 94% 30.00 in 6.0 mi NE 3.5 mph - 0.07 in Rain , Thunderstorm Rain
11:53 PM 66.0 °F - 64.0 °F 93% 29.99 in 4.0 mi North 5.8 mph - 0.15 in Rain Rain